Location: *
(1.3500°S, 147.5000°W)
Time: 03:23:31
(UTC+00:00)

Envisat - Pass Details

Date: 24 June 2021
Orbit: 764 x 766 km, 98.2° (Epoch: 03 August)

Event Time Altitude Azimuth Distance (km) Brightness Sun altitude
Rises 15:10:07 0° 0° (N) 3,212 6.6 -10.3°
Reaches altitude 10° 15:12:29 10° 355° (N) 2,289 5.7 -9.7°
Maximum altitude 15:17:17 46° 282° (WNW) 1,014 3.3 -8.6°
Drops below altitude 10° 15:22:08 10° 209° (SSW) 2,299 5.0 -7.5°
Sets 15:24:32 0° 203° (SSW) 3,227 5.8 -7.0°
